Terminal Aerodrome Forecast
Issued by NWS Blacksburg, VA

Current Version | Previous Version | Text Only | Print | Product List | Glossary Off
Versions: 1 2 3 4 5 6 7 8 9 10 11 12 13 14 15 16 17 18 19 20 21 22 23 24 25 26 27 28 29 30 31 32 33 34 35 36 37 38 39 40 41 42 43 44 45 46 47 48 49 50

000
FTUS41 KRNK 210127 AAA
TAFBLF
TAF AMD
KBLF 210127Z 2101/2124 30022G32KT 4SM SHRA BR BKN035
      TEMPO 2101/2103 32028G45KT 2SM TSRA OVC020CB
     FM210300 29014G24KT P6SM VCSH OVC040
     FM211400 27009G19KT P6SM SCT025 BKN050
     FM211800 27012G25KT P6SM BKN250=

USA.gov is the U.S. government's official web portal to all federal, state and local government web resources and services.